Location: ?????????
(54.7630°N, 39.4991°E)
Time: 17:03:51
(UTC+00:00)

Cosmos 1656 - Pass Details

Date: 14 April 2026
Orbit: 798 x 846 km, 71.1° (Epoch: 16 May)

Event Time Altitude Azimuth Distance (km) Brightness Sun altitude
Rises 21:59:34 0° 324° (NW) 3,318 7.4 -25.1°
Reaches altitude 10° 22:02:05 10° 317° (NW) 2,387 6.5 -25.0°
Enters shadow 22:06:41 40° 262° (W) 1,169 4.2 -24.9°
